When you browse on this site, cookies collect data to enhance your experience and personalize the content and advertising you see.
Visit our Privacy Policy to learn more. By continuing to use the site, you agree to this use of cookies and data.
  • In Hungary
  • List of Countries
  • For 7 days
  • Water Temperature
  • Weather Map
  • News
  • Weather Widgets
  • user-avatar
    Login

    Hourly Weather Siegen

    Today, 15 December, Sunday

    Time Temperature Precipitation Wind Pressure Humidity
    00:00 +2°C° 0 mm 3 mps 725 mmHg 88%
    01:00 +3°C° 0 mm 2 mps 725 mmHg 90%
    02:00 +3°C° 0.1 mm 3 mps 724 mmHg 92%
    03:00 +3°C° 0.1 mm 3 mps 723 mmHg 93%
    04:00 +4°C° 0.1 mm 3 mps 722 mmHg 95%
    05:00 +5°C° 0.6 mm 4 mps 722 mmHg 94%
    06:00 +6°C° 0.6 mm 5 mps 721 mmHg 93%
    07:00 +7°C° 0.6 mm 6 mps 721 mmHg 93%
    08:00 +7°C° 0.8 mm 6 mps 722 mmHg 88%
    09:00 +5°C° 0.8 mm 6 mps 723 mmHg 84%
    10:00 +4°C° 0.8 mm 6 mps 724 mmHg 80%
    11:00 +5°C° 0 mm 6 mps 725 mmHg 78%
    12:00 +6°C° 0 mm 5 mps 726 mmHg 76%
    13:00 +6°C° 0 mm 4 mps 727 mmHg 74%
    14:00 +5°C° 0 mm 4 mps 727 mmHg 76%
    15:00 +5°C° 0 mm 3 mps 728 mmHg 79%
    16:00 +4°C° 0 mm 3 mps 728 mmHg 82%
    17:00 +4°C° 0 mm 3 mps 728 mmHg 84%
    18:00 +3°C° 0 mm 3 mps 729 mmHg 86%
    19:00 +3°C° 0 mm 3 mps 729 mmHg 87%
    20:00 +4°C° 0 mm 2 mps 729 mmHg 89%
    21:00 +4°C° 0 mm 2 mps 730 mmHg 91%
    22:00 +3°C° 0 mm 2 mps 730 mmHg 92%
    23:00 +4°C° 0 mm 2 mps 730 mmHg 93%

    Tomorrow, 16 December, Monday

    Time Temperature Precipitation Wind Pressure Humidity
    00:00 +4°C° 0 mm 2 mps 730 mmHg 93%
    01:00 +5°C° 0 mm 2 mps 731 mmHg 93%
    02:00 +5°C° 0 mm 2 mps 731 mmHg 93%
    03:00 +5°C° 0 mm 2 mps 731 mmHg 94%
    04:00 +6°C° 0 mm 1 mps 731 mmHg 94%
    05:00 +6°C° 0.2 mm 1 mps 731 mmHg 95%
    06:00 +6°C° 0.2 mm 1 mps 730 mmHg 96%
    07:00 +6°C° 0.2 mm 1 mps 730 mmHg 97%
    08:00 +7°C° 0.2 mm 1 mps 730 mmHg 97%
    09:00 +6°C° 0.2 mm 2 mps 730 mmHg 97%
    10:00 +6°C° 0.2 mm 2 mps 730 mmHg 97%
    11:00 +7°C° 0.1 mm 2 mps 730 mmHg 96%
    12:00 +7°C° 0.1 mm 2 mps 730 mmHg 95%
    13:00 +8°C° 0.1 mm 2 mps 730 mmHg 94%
    14:00 +8°C° 0 mm 2 mps 729 mmHg 92%
    15:00 +8°C° 0 mm 2 mps 729 mmHg 91%
    16:00 +8°C° 0 mm 2 mps 729 mmHg 90%
    17:00 +8°C° 0 mm 2 mps 729 mmHg 88%
    18:00 +8°C° 0 mm 2 mps 728 mmHg 86%
    19:00 +8°C° 0 mm 3 mps 728 mmHg 85%
    20:00 +8°C° 0 mm 2 mps 728 mmHg 86%
    21:00 +7°C° 0 mm 2 mps 728 mmHg 88%
    22:00 +7°C° 0 mm 2 mps 728 mmHg 89%
    23:00 +7°C° 0 mm 2 mps 728 mmHg 88%

    Day after tomorrow, 17 December, Tuesday

    Time Temperature Precipitation Wind Pressure Humidity
    00:00 +7°C° 0 mm 2 mps 728 mmHg 87%
    01:00 +7°C° 0 mm 2 mps 728 mmHg 86%
    02:00 +7°C° 0 mm 2 mps 728 mmHg 85%
    03:00 +8°C° 0 mm 2 mps 728 mmHg 83%
    04:00 +8°C° 0 mm 2 mps 728 mmHg 81%
    05:00 +8°C° 0 mm 2 mps 728 mmHg 81%
    06:00 +8°C° 0 mm 2 mps 728 mmHg 80%
    07:00 +7°C° 0 mm 2 mps 728 mmHg 80%
    08:00 +8°C° 0 mm 2 mps 728 mmHg 79%
    09:00 +8°C° 0 mm 2 mps 729 mmHg 79%
    10:00 +8°C° 0 mm 2 mps 729 mmHg 79%
    11:00 +9°C° 0 mm 2 mps 729 mmHg 77%
    12:00 +10°C° 0 mm 2 mps 729 mmHg 76%
    13:00 +10°C° 0 mm 2 mps 729 mmHg 74%
    14:00 +9°C° 0 mm 2 mps 729 mmHg 77%
    15:00 +9°C° 0 mm 2 mps 729 mmHg 80%
    16:00 +8°C° 0 mm 2 mps 729 mmHg 83%
    17:00 +7°C° 0 mm 2 mps 729 mmHg 84%
    18:00 +7°C° 0 mm 2 mps 730 mmHg 85%
    19:00 +6°C° 0 mm 2 mps 730 mmHg 85%
    20:00 +7°C° 0 mm 2 mps 730 mmHg 84%
    21:00 +7°C° 0 mm 2 mps 730 mmHg 83%
    22:00 +7°C° 0 mm 2 mps 730 mmHg 82%
    23:00 +7°C° 0 mm 2 mps 730 mmHg 83%

    18 December, Wednesday

    Time Temperature Precipitation Wind Pressure Humidity
    00:00 +6°C° 0 mm 2 mps 730 mmHg 83%
    01:00 +6°C° 0 mm 2 mps 730 mmHg 84%
    02:00 +6°C° 0 mm 2 mps 730 mmHg 84%
    03:00 +6°C° 0 mm 2 mps 730 mmHg 85%
    04:00 +6°C° 0 mm 2 mps 731 mmHg 86%
    05:00 +6°C° 0 mm 2 mps 731 mmHg 87%
    06:00 +6°C° 0 mm 2 mps 731 mmHg 89%
    07:00 +7°C° 0 mm 2 mps 731 mmHg 91%
    08:00 +8°C° 0.1 mm 1 mps 732 mmHg 92%
    09:00 +8°C° 0.1 mm 1 mps 732 mmHg 93%
    10:00 +8°C° 0.1 mm 1 mps 733 mmHg 95%
    11:00 +8°C° 0.2 mm 1 mps 733 mmHg 95%
    12:00 +9°C° 0.2 mm 1 mps 733 mmHg 94%
    13:00 +8°C° 0.2 mm 0 mps 733 mmHg 94%
    14:00 +9°C° 0 mm 1 mps 733 mmHg 95%
    15:00 +8°C° 0 mm 1 mps 733 mmHg 95%
    16:00 +8°C° 0 mm 1 mps 733 mmHg 96%
    17:00 +8°C° 0 mm 1 mps 732 mmHg 96%
    18:00 +8°C° 0 mm 1 mps 732 mmHg 96%
    19:00 +8°C° 0 mm 1 mps 732 mmHg 96%
    20:00 +8°C° 0 mm 1 mps 732 mmHg 95%
    21:00 +8°C° 0 mm 1 mps 732 mmHg 95%
    22:00 +7°C° 0 mm 1 mps 732 mmHg 95%
    23:00 +7°C° 0 mm 1 mps 731 mmHg 95%

    19 December, Thursday

    Time Temperature Precipitation Wind Pressure Humidity
    00:00 +7°C° 0 mm 1 mps 731 mmHg 95%
    01:00 +6°C° 0 mm 1 mps 731 mmHg 95%
    02:00 +6°C° 0 mm 1 mps 731 mmHg 95%
    03:00 +6°C° 0 mm 1 mps 730 mmHg 95%
    04:00 +6°C° 0 mm 1 mps 730 mmHg 94%
    05:00 +5°C° 0 mm 2 mps 730 mmHg 94%
    06:00 +4°C° 0 mm 2 mps 730 mmHg 94%
    07:00 +4°C° 0 mm 2 mps 729 mmHg 93%
    08:00 +5°C° 0 mm 2 mps 729 mmHg 93%
    09:00 +5°C° 0 mm 2 mps 729 mmHg 92%
    10:00 +5°C° 0 mm 2 mps 729 mmHg 91%
    11:00 +6°C° 0 mm 2 mps 729 mmHg 88%
    12:00 +7°C° 0 mm 2 mps 729 mmHg 85%
    13:00 +8°C° 0 mm 2 mps 728 mmHg 83%
    14:00 +7°C° 0 mm 2 mps 728 mmHg 85%
    15:00 +6°C° 0 mm 2 mps 728 mmHg 88%
    16:00 +6°C° 0 mm 2 mps 727 mmHg 90%
    17:00 +5°C° 0 mm 2 mps 727 mmHg 91%
    18:00 +5°C° 0 mm 2 mps 727 mmHg 92%
    19:00 +6°C° 0 mm 1 mps 727 mmHg 92%
    20:00 +5°C° 0 mm 2 mps 727 mmHg 92%
    21:00 +5°C° 0 mm 2 mps 727 mmHg 92%
    22:00 +5°C° 0 mm 2 mps 727 mmHg 91%
    23:00 +5°C° 0 mm 2 mps 726 mmHg 92%

    20 December, Friday

    Time Temperature Precipitation Wind Pressure Humidity
    00:00 +5°C° 0 mm 2 mps 726 mmHg 92%
    01:00 +5°C° 0 mm 2 mps 725 mmHg 92%
    02:00 +4°C° 0 mm 2 mps 725 mmHg 93%
    03:00 +5°C° 0 mm 1 mps 725 mmHg 94%
    04:00 +5°C° 0 mm 1 mps 725 mmHg 94%
    05:00 +5°C° 0 mm 1 mps 724 mmHg 94%
    06:00 +5°C° 0 mm 1 mps 724 mmHg 94%
    07:00 +5°C° 0 mm 1 mps 724 mmHg 95%
    08:00 +5°C° 0 mm 1 mps 723 mmHg 94%
    09:00 +5°C° 0 mm 1 mps 723 mmHg 94%
    10:00 +5°C° 0 mm 1 mps 722 mmHg 93%
    11:00 +5°C° 0 mm 2 mps 722 mmHg 90%
    12:00 +6°C° 0 mm 2 mps 721 mmHg 87%
    13:00 +5°C° 0 mm 3 mps 720 mmHg 84%
    14:00 +5°C° 0 mm 3 mps 719 mmHg 85%
    15:00 +5°C° 0 mm 3 mps 719 mmHg 86%
    16:00 +4°C° 0 mm 3 mps 718 mmHg 86%
    17:00 +4°C° 0.1 mm 3 mps 717 mmHg 87%
    18:00 +4°C° 0.1 mm 3 mps 717 mmHg 88%
    19:00 +4°C° 0.1 mm 3 mps 717 mmHg 89%
    20:00 +4°C° 0.1 mm 3 mps 716 mmHg 90%
    21:00 +5°C° 0.1 mm 2 mps 716 mmHg 90%
    22:00 +4°C° 0.1 mm 2 mps 716 mmHg 91%
    23:00 +5°C° 0 mm 2 mps 716 mmHg 91%
    Show more